Location: Gravenhurst
(44.9196°N, 79.3742°W)
Time: 19:08:54
(UTC-04:00)

Envisat - Visible Passes

Search period start: 20 March 2019 00:00
Search period end: 30 March 2019 00:00
Orbit: 764 x 766 km, 98.2° (Epoch: 20 March)

Date Brightness Start Highest point End Pass type
(mag) Time Alt. Az. Time Alt. Az. Time Alt. Az.
20 Mar 5.4 20:55:05 10° SSW 20:59:08 24° W 21:03:14 10° NW visible
21 Mar 4.0 20:17:14 10° S 20:22:09 50° W 20:27:07 10° NNW visible
22 Mar 6.0 21:22:22 10° WSW 21:24:58 14° W 21:27:34 10° WNW visible
23 Mar 5.1 20:43:25 10° SSW 20:47:50 30° W 20:52:17 10° NW visible
24 Mar 3.6 20:05:53 10° S 20:10:54 64° WSW 20:15:59 10° NNW visible
25 Mar 5.8 21:10:16 10° SW 21:13:37 18° W 21:17:00 10° NW visible
26 Mar 4.7 20:31:52 10° SSW 20:36:32 37° W 20:41:15 10° NNW visible
28 Mar 5.6 20:58:23 10° SW 21:02:17 22° W 21:06:12 10° NW visible
29 Mar 4.2 20:20:24 10° S 20:25:16 46° W 20:30:10 10° NNW visible
